Showing default

ICEYE-X49, 62384

Orbit data source: Space-Track

ICEYE-X49, 62384 is a payload satellite owned by ICEYE (FI) in LEO that was launched on Sat, 21 Dec 2024 UTC via an FALCON 9 launch vehicle from the Air Force Western Test Range (AFWTR). Payloads include a variety of satellites, spacecraft, and rockets equipped with specific instruments for various scientific and technological missions. These include communications satellites like Starlink; space stations such as the ISS; scientific satellites like the Hubble; Earth observation satellites from companies like Planet Labs, Umbra, and HawkEye 360; GPS; miniature CubeSats for education and research; and military/defense satellites.

Loading next visibility...
ICEYE-X49 details
Identifier
62384, 2024-247H
Orbit
LEO
Last TLE update17 hours ago
Origin
Flag of FIICEYE (FI / FIN)
ManufacturerICEYE
MissionOperational Commercial Sigint
Bus & MotorICEYE, Unknown motor
Mass80 kg wet, 80 kg dry
Launch date (UTC)
2024-12-21 (2 months ago)
Launch vehicle
FALCON 9
Launch site
Air Force Western Test Range (AFWTR)
Object type
Payload
Rocket body
Debris
Shape & HBRBox + 2 Pan, 1 m
Radar Cross Section0.240 m², Large (>1 m²)

Expand to show TLE details & history

TLE from 17 hours ago
0 ICEYE-X49
1 62384U 24247H   25035.56599044  .00013454  00000-0  92294-3 0  9995
2 62384  44.9983 120.3238 0002315 307.9508  52.1158 15.06008820  6978
Epoch: 2025-02-04T13:35Z
Definitive object data (Epoch: 2025-02-04T13:35:01.574Z)
Latitude0.00005°
Longitude141.59785°
Altitude547.425 km
Speed7.591 km/s
True Right ascension08h 01m 17s
True Declination0° 00' 00"
Sunlit
Object was in full shadow at TLE epoch
Visualization TLE readout
Latitude-18.10853°
Longitude118.78757°
Altitude550.924 km
Speed7.588 km/s
Apparent Right ascension03h 18m 38s
Apparent Declination-56° 55' 17"
Sunlit
Object is in full shadow
Visualization observer readout
Local Sidereal Time09:01:06
Azimuth219.108° SW
Elevation-30.375°
Doppler factor1
Orbital elements
Apogee altitude551.609 km
Perigee altitude548.401 km
Semi-major axis6,928.142 km
Eccentricity0.0002315
Inclination44.9983°
RAAN120.3238°
Arg. of periapsis307.9508°
True anomaly52.13674°
Mean anomaly52.1158°
Eccentric anomaly52.12627°
Mean motion3.76373 °/min
BSTAR0.00092294
Orbital period95.65 mins
Loading maneuver chart data...
Loading historical data...
Loading historical data...
Loading historical data...
Loading historical data...
Loading historical data...
Loading historical data...
Loading historical data...

ICEYE-X49 Visibility forecast

Observer location: undefined°, undefined

Span
Click to sort rows by Start time (UTC) header in descending order
Start Az.
Max El. time (UTC)
Max El. Az.
Max El.
End time (UTC)
End Az.
6 mins2025-02-05 08:54:50.544Z222.922° SW2025-02-05 08:56:50.544Z167.824° S40.679°2025-02-05 09:00:50.544Z71.789° E
6 mins2025-02-05 10:34:50.544Z281.083° WNW2025-02-05 10:37:50.544Z8.754° NNE35.633°2025-02-05 10:40:50.544Z61.174° ENE
6 mins2025-02-05 12:15:50.544Z306.082° NW2025-02-05 12:17:50.544Z353.057° N33.77°2025-02-05 12:21:50.544Z78.844° E
6 mins2025-02-05 13:55:50.544Z291.413° WNW2025-02-05 13:58:50.544Z163.16° S44.452°2025-02-05 14:01:50.544Z119.33° SE
4 mins2025-02-05 15:36:50.544Z249.733° W2025-02-05 15:38:50.544Z214.499° SW16.879°2025-02-05 15:40:50.544Z183.117° SSW
|